Regional Weather Roundup
Issued by NWS Portland, ME

Current Version | Previous Version | Text Only | Print | Product List | Glossary Off
Versions: 1 2 3 4 5 6 7 8 9 10 11 12 13 14 15 16 17 18 19 20 21 22 23 24 25 26 27 28 29 30 31 32 33 34 35 36 37 38 39 40 41 42 43 44 45 46 47 48 49 50
000 ASUS41 KGYX 180810 RWRGYX WEATHER ROUNDUP FOR MAINE AND NEW HAMPSHIRE NATIONAL WEATHER SERVICE GRAY ME 400 AM EDT WED OCT 18 2017 MEZ002-005-006-010-012-015-018-020-021-024-026-027-029-180900- MAINE CITY SKY/WX TMP DP RH WIND PRES REMARKS PORTLAND PTCLDY 43 33 68 SW12 30.13F SANFORD CLEAR 36 33 89 CALM 30.15S BAR HARBOR CLOUDY 53 39 59 SW9 30.09S WISCASSET MOCLDY 48 36 63 CALM 30.13R ROCKLAND CLOUDY 51 39 63 W9 30.11R FRYEBURG CLEAR 40 35 83 CALM 30.11S LEWISTONAUBURN CLEAR 42 34 73 S5 30.10F AUGUSTA CLEAR 44 32 62 S3 30.10R WATERVILLE MOCLDY 43 35 73 SW3 30.06S BANGOR CLOUDY 49 35 58 S6 30.07R GREENVILLE N/A 44 33 65 CALM 29.99F MILLINOCKET CLOUDY 42 37 82 CALM 30.03S HOULTON CLOUDY 45 36 70 SW8 29.98S PRESQUE ISLE MOCLDY 45 35 68 S6 29.95S FRENCHVILLE CLOUDY 44 34 67 SW7 29.89S CARIBOU LGT RAIN 46 35 65 SW9 29.92S $$ NHZ002-005-008-009-011-012-014-180900- NEW HAMPSHIRE CITY SKY/WX TMP DP RH WIND PRES REMARKS PORTSMOUTH PTCLDY 44 36 72 W5 30.14F ROCHESTER CLEAR 39 32 76 CALM 30.14S NASHUA CLEAR 39 37 92 CALM 30.18S MANCHESTER CLEAR 42 36 79 S3 30.15F CONCORD CLEAR 40 33 76 CALM 30.16S LACONIA CLEAR 39 34 82 CALM 30.15S PLYMOUTH FAIR 30 30 99 CALM 30.16S BERLIN MOCLDY 39 34 82 CALM 30.09S WHITEFIELD CLOUDY 38 36 92 CALM 30.11S JAFFREY CLOUDY 43 37 79 SW5 30.19R KEENE CLOUDY 32 30 92 CALM 30.21R LEBANON CLEAR 37 33 85 E5 30.15R MT WASHINGTON FOG 28 28 100 W56 N/A VSB 0 WCI 8 $$ VTZ005-007-008-180900- VERMONT CITY SKY/WX TMP DP RH WIND PRES REMARKS ST JOHNSBURY N/A 45 32 60 MISG 30.11R MONTPELIER CLEAR 52 38 58 SW5 30.14F BURLINGTON CLEAR 51 35 54 S13G24 30.11S $$ MAZ007-012-024-CTZ003-RIZ002-NYZ038-NYZ072-180900- SOUTHERN NEW ENGLAND AND NY CITY SKY/WX TMP DP RH WIND PRES REMARKS BOSTON CLEAR 49 39 68 SW14 30.19F WORCESTER CLEAR 45 34 65 W12 30.19R NANTUCKET CLEAR 53 45 74 W12 30.25F PROVIDENCE CLEAR 49 41 74 SW7 30.23S HARTFORD PTCLDY 44 38 79 S6 30.22S ALBANY PTCLDY 44 35 70 VRB3 30.22R NEW YORK CITY CLEAR 54 37 52 SW8 30.26F $$ ANZ081-ANZ082-ANZ150-NHZ014-MEZ023>029-180900- COASTAL MARINE OBSERVATIONS STATION/POSITION TIME TEMP WIND PRES WAVE AIR SEA DIR/SP/G HT/PER (UTC) (F) (DEG/KT/KT) (MB) (FT/S) MOUNT DESERT ROC 0800 54 220/ 25/ 28 1019.4F MATINICUS ROCK 0700 54 230/ 23/ 25 1019.2F ISLE OF SHOALS 0700 50 230/ 19/ 21 1020.9F JEFFREYS LEDGE 0736 58 N/A 6/ 6 CASHES LEDGE BUO 0750 55 55 1020.1 7/ 6 GEORGES BANK BUO 0650 53 62 1023.5 5/ 6 $$ .............KEY.............. WCI - WIND CHILL TC - TEMPERATURE IN CELSIUS VSB - VISIBILITY IN MILES HX - HEAT INDEX FAIR- INDICATES FEW OR NO CLOUDS BELOW 12,000 FT, WITH NO SIGNIFICANT WEATHER AND/OR OBSTRUCTIONS TO VISIBILITY.

USA.gov is the U.S. government's official web portal to all federal, state and local government web resources and services.